Location: Wiler
(46.4041°N, 7.7840°E)
Time: 13:47:02
(UTC+00:00)

BREEZE M DEB (TANK) - Pass Details

Date: 09 April 2020
Orbit: 304 x 11878 km, 49.5° (Epoch: 22 May)

Event Time Altitude Azimuth Distance (km) Brightness Sun altitude
Rises 19:18:15 0° 213° (SSW) 2,177 5.5 -12.1°
Reaches altitude 10° 19:19:44 10° 202° (SSW) 1,536 4.6 -12.3°
Maximum altitude 19:22:34 36° 132° (SE) 1,042 3.2 -12.8°
Drops below altitude 10° 19:29:18 10° 68° (ENE) 3,690 6.1 -13.8°
Sets 19:35:05 0° 63° (ENE) 6,149 7.3 -14.7°
